Home > Weather > Celle > Past weeks

Flag for Germany Past Weather in Celle, Lower Saxony, Germany — Yesterday and Last 2 Weeks

Now
75 °F

Broken clouds.


Feels Like: 78 °F
Forecast: 60 / 70 °F
Wind: 9 mph from West

Location: Celle Airport

Current Time: Jul 27, 2016 at 5:30:16 PM

Latest Report: Jul 27, 2016 at 4:20 PM


Visibility: N/A

Pressure: 29.95 "Hg

Humidity: 50%

Dew Point: 55 °F

Location of CelleLocation

Past Weather in Celle — Graph

°F

Celle Temperature Yesterday

Maximum temperature yesterday: 79 °F (at 4:20 PM)
Minimum temperature yesterday: 63 °F (at 5:20 AM)
Average temperature yesterday: 70 °F

High & Low Weather Summary for the Past Weeks

 TemperatureHumidityPressure
High88 °F (Jul 20, 4:20 PM)100% (Jul 13, 11:20 PM)30.24 "Hg (Jul 13, 11:20 PM)
Low46 °F (Jul 16, 5:20 AM)31% (Jul 20, 3:20 PM)29.83 "Hg (Jul 12, 3:20 PM)
Average68 °F71%30.06 "Hg
* Reported Jul 12 3:20 PM — Jul 27 3:20 PM, Celle, Weather by CustomWeather, © 2016

Note: Actual official high and low records may vary slightly from our data, if they occured in-between our weather recording intervals... More about our weather records

Advertising

Celle Weather History for the Previous 24 Hours

Scroll right to see more
 ConditionsComfort  
Time TempWeatherWind HumidityBarometerVisibility
3:20 PM
Wed, Jul 27
77 °FPassing clouds.12 mph44%29.95 "HgN/A
2:20 PM75 °FPassing clouds.6 mph54%29.98 "HgN/A
1:20 PM72 °FBroken clouds.6 mph61%29.98 "HgN/A
12:20 PM70 °FBroken clouds.6 mph69%30.01 "HgN/A
11:20 AM68 °FPartly sunny.6 mph78%30.01 "HgN/A
10:20 AM66 °FPartly sunny.3 mph78%30.01 "HgN/A
9:20 AM63 °FBroken clouds.5 mph88%30.04 "HgN/A
8:20 AM63 °FBroken clouds.5 mph88%30.04 "HgN/A
7:20 AM61 °FPartly sunny.7 mph94%30.04 "HgN/A
6:20 AM61 °FPassing clouds.6 mph94%30.04 "HgN/A
5:20 AM61 °FOvercast.3 mph94%30.07 "HgN/A
4:20 AM61 °FScattered showers. Passing clouds.6 mph94%30.07 "HgN/A
3:20 AM61 °FPassing clouds.7 mph94%30.07 "HgN/A
2:20 AM64 °FLight rain. Passing clouds.6 mph78%30.09 "HgN/A
1:20 AM64 °FPassing clouds.5 mph78%30.09 "HgN/A
12:20 AM64 °FPassing clouds.5 mph83%30.09 "HgN/A
11:20 PM
Tue, Jul 26
70 °FLight rain. Passing clouds.1 mph57%30.09 "HgN/A
10:20 PM72 °FBroken clouds.1 mph53%30.09 "HgN/A
9:20 PM73 °FBroken clouds.5 mph44%30.09 "HgN/A
8:20 PM75 °FBroken clouds.3 mph41%30.09 "HgN/A
7:20 PM75 °FPartly sunny.7 mph39%30.09 "HgN/A
6:20 PM77 °FPartly sunny.7 mph36%30.09 "HgN/A
5:20 PM79 °FPartly sunny.5 mph34%30.09 "HgN/A
Weather by CustomWeather, © 2016

See weather overviewHow to use our weather pages